| time (UTC) | temp F | wind direction | speed MPH | gust MPH | rain 1hr in | rain 24hr in | rain mn in | humidity % | barometer mb |
| 20260906233054 | 65 | 308 | 4.0 | 11.0 | 0.00 | 0.01 | 0.00 | 70 | 1015.5 |
| 20260906231551 | 65 | 360 | 6.0 | 12.0 | 0.00 | 0.01 | 0.00 | 72 | 1015.7 |
| 20260906230048 | 65 | 286 | 7.0 | 12.0 | 0.00 | 0.01 | 0.00 | 73 | 1015.9 |
| 20260906224545 | 66 | 325 | 5.0 | 11.0 | 0.00 | 0.01 | 0.00 | 72 | 1015.9 |
| 20260906223044 | 66 | 298 | 5.0 | 10.0 | 0.00 | 0.01 | 0.00 | 70 | 1016.2 |
| 20260906221547 | 66 | 297 | 3.0 | 8.0 | 0.00 | 0.01 | 0.00 | 70 | 1016.2 |
| 20260906220120 | 66 | 308 | 1.0 | 5.0 | 0.00 | 0.01 | 0.00 | 69 | 1016.1 |
| 20260906214545 | 65 | 360 | 2.0 | 8.0 | 0.00 | 0.01 | 0.00 | 70 | 1016.1 |
| 20260906213050 | 65 | 5 | 3.0 | 8.0 | 0.00 | 0.01 | 0.00 | 70 | 1016.3 |
| 20260906211544 | 65 | 37 | 3.0 | 9.0 | 0.00 | 0.01 | 0.00 | 70 | 1016.2 |
| 20260906210104 | 65 | 38 | 7.0 | 10.0 | 0.00 | 0.01 | 0.00 | 69 | 1016.2 |
| 20260906204545 | 64 | 349 | 3.0 | 8.0 | 0.00 | 0.01 | 0.00 | 70 | 1016.1 |
| 20260906203049 | 64 | 360 | 5.0 | 10.0 | 0.00 | 0.01 | 0.00 | 70 | 1016.3 |
| 20260906201546 | 64 | 360 | 4.0 | 9.0 | 0.00 | 0.01 | 0.00 | 71 | 1016.3 |
| 20260906200049 | 64 | 0 | 2.0 | 5.0 | 0.00 | 0.01 | 0.00 | 72 | 1016.5 |
| 20260906194607 | 63 | 104 | 3.0 | 8.0 | 0.00 | 0.01 | 0.00 | 73 | 1016.6 |
| 20260906193044 | 63 | 19 | 2.0 | 11.0 | 0.00 | 0.01 | 0.00 | 73 | 1016.8 |
| 20260906191543 | 63 | 38 | 8.0 | 13.0 | 0.00 | 0.01 | 0.00 | 73 | 1016.9 |
| 20260906190045 | 63 | 43 | 8.0 | 14.0 | 0.00 | 0.01 | 0.00 | 75 | 1016.9 |
| 20260906184604 | 62 | 43 | 9.0 | 14.0 | 0.00 | 0.01 | 0.00 | 75 | 1016.8 |
| 20260906183057 | 61 | 27 | 9.0 | 12.0 | 0.00 | 0.01 | 0.00 | 77 | 1017.0 |
| 20260906181546 | 60 | 38 | 9.0 | 14.0 | 0.00 | 0.01 | 0.00 | 81 | 1017.3 |
| 20260906180049 | 59 | 46 | 7.0 | 14.0 | 0.00 | 0.01 | 0.00 | 87 | 1017.4 |
| 20260906174545 | 58 | 49 | 15.0 | 20.0 | 0.00 | 0.02 | 0.00 | 93 | 1016.7 |
| 20260906173045 | 57 | 24 | 11.0 | 14.0 | 0.00 | 0.02 | 0.00 | 90 | 1017.6 |
| 20260906171546 | 57 | 318 | 4.0 | 8.0 | 0.00 | 0.02 | 0.00 | 87 | 1018.7 |
| 20260906170050 | 57 | 295 | 4.0 | 10.0 | 0.00 | 0.02 | 0.00 | 87 | 1018.5 |
| 20260906164553 | 56 | 279 | 3.0 | 9.0 | 0.00 | 0.02 | 0.00 | 88 | 1018.7 |
| 20260906163050 | 56 | 284 | 4.0 | 8.0 | 0.00 | 0.02 | 0.00 | 88 | 1018.8 |
| 20260906161543 | 55 | 311 | 5.0 | 10.0 | 0.00 | 0.02 | 0.00 | 89 | 1018.6 |
| 20260906160050 | 55 | 311 | 6.0 | 13.0 | 0.00 | 0.02 | 0.00 | 89 | 1018.6 |
| 20260906154545 | 54 | 295 | 8.0 | 15.0 | 0.00 | 0.02 | 0.00 | 89 | 1018.8 |
| 20260906153046 | 54 | 317 | 6.0 | 14.0 | 0.00 | 0.02 | 0.00 | 88 | 1019.0 |
| 20260906151549 | 55 | 316 | 5.0 | 14.0 | 0.00 | 0.02 | 0.00 | 88 | 1019.2 |
| 20260906150056 | 56 | 292 | 9.0 | 14.0 | 0.00 | 0.02 | 0.00 | 87 | 1019.4 |
| 20260906144557 | 56 | 240 | 9.0 | 16.0 | 0.00 | 0.02 | 0.00 | 86 | 1019.4 |
| 20260906143044 | 59 | 267 | 7.0 | 14.0 | 0.00 | 0.02 | 0.00 | 85 | 1019.7 |
| 20260906141549 | 59 | 311 | 1.0 | 3.0 | 0.00 | 0.02 | 0.00 | 87 | 1019.2 |
| 20260906140044 | 58 | 26 | 1.0 | 3.0 | 0.00 | 0.02 | 0.00 | 87 | 1018.9 |
| 20260906134543 | 58 | 0 | 0.0 | 4.0 | 0.00 | 0.04 | 0.00 | 87 | 1019.1 |
| 20260906133046 | 58 | 15 | 2.0 | 5.0 | 0.00 | 0.04 | 0.00 | 88 | 1019.0 |
| 20260906131542 | 57 | 304 | 2.0 | 5.0 | 0.00 | 0.04 | 0.00 | 88 | 1018.7 |
| 20260906130049 | 57 | 5 | 5.0 | 9.0 | 0.00 | 0.04 | 0.00 | 88 | 1018.9 |
| 20260906124550 | 57 | 11 | 7.0 | 12.0 | 0.00 | 0.04 | 0.00 | 88 | 1018.9 |
| 20260906123045 | 57 | 352 | 6.0 | 11.0 | 0.00 | 0.04 | 0.00 | 88 | 1019.3 |
| 20260906121545 | 57 | 351 | 7.0 | 13.0 | 0.00 | 0.04 | 0.00 | 88 | 1018.8 |
| 20260906120050 | 57 | 360 | 7.0 | 13.0 | 0.00 | 0.04 | 0.00 | 88 | 1018.6 |
| 20260906114550 | 57 | 5 | 9.0 | 14.0 | 0.00 | 0.04 | 0.00 | 87 | 1018.8 |
| 20260906113045 | 57 | 5 | 7.0 | 14.0 | 0.00 | 0.04 | 0.00 | 87 | 1019.1 |
| 20260906111549 | 57 | 352 | 7.0 | 14.0 | 0.00 | 0.04 | 0.00 | 87 | 1019.0 |
| 20260906110045 | 57 | 5 | 7.0 | 13.0 | 0.00 | 0.04 | 0.00 | 87 | 1018.8 |
| 20260906104605 | 57 | 349 | 9.0 | 15.0 | 0.00 | 0.04 | 0.00 | 86 | 1019.1 |
| 20260906103044 | 57 | 5 | 10.0 | 17.0 | 0.00 | 0.04 | 0.00 | 86 | 1019.1 |
| 20260906101545 | 57 | 340 | 12.0 | 18.0 | 0.00 | 0.04 | 0.00 | 85 | 1019.0 |
| 20260906100046 | 58 | 360 | 12.0 | 18.0 | 0.00 | 0.04 | 0.00 | 85 | 1019.1 |
| 20260906094612 | 58 | 344 | 9.0 | 15.0 | 0.00 | 0.04 | 0.00 | 85 | 1019.0 |
| 20260906093047 | 58 | 5 | 9.0 | 14.0 | 0.00 | 0.04 | 0.00 | 85 | 1019.0 |
| 20260906091547 | 58 | 352 | 7.0 | 15.0 | 0.00 | 0.04 | 0.00 | 85 | 1019.1 |
| 20260906090048 | 58 | 13 | 7.0 | 13.0 | 0.00 | 0.04 | 0.00 | 85 | 1019.3 |
| 20260906084545 | 58 | 327 | 6.0 | 13.0 | 0.00 | 0.04 | 0.00 | 85 | 1019.5 |
| 20260906083045 | 58 | 323 | 4.0 | 9.0 | 0.00 | 0.04 | 0.00 | 86 | 1019.8 |
| 20260906081552 | 58 | 311 | 4.0 | 10.0 | 0.00 | 0.04 | 0.00 | 86 | 1020.0 |
| 20260906080050 | 57 | 351 | 4.0 | 7.0 | 0.00 | 0.04 | 0.00 | 87 | 1020.0 |
| 20260906074546 | 56 | 346 | 4.0 | 8.0 | 0.00 | 0.04 | 0.00 | 88 | 1020.0 |
| 20260906073044 | 56 | 344 | 3.0 | 5.0 | 0.00 | 0.04 | 0.00 | 87 | 1020.0 |
| 20260906071544 | 56 | 323 | 3.0 | 8.0 | 0.00 | 0.04 | 0.00 | 86 | 1020.1 |
| 20260906070044 | 57 | 5 | 2.0 | 9.0 | 0.00 | 0.04 | 0.00 | 85 | 1020.2 |
| 20260906064545 | 57 | 360 | 7.0 | 12.0 | 0.00 | 0.04 | 0.00 | 86 | 1020.3 |
| 20260906063045 | 57 | 9 | 6.0 | 10.0 | 0.00 | 0.04 | 0.00 | 86 | 1020.5 |
| 20260906061547 | 56 | 275 | 4.0 | 9.0 | 0.00 | 0.04 | 0.00 | 86 | 1020.7 |
| 20260906060043 | 56 | 297 | 3.0 | 8.0 | 0.00 | 0.04 | 0.00 | 86 | 1020.6 |
| 20260906054545 | 56 | 297 | 3.0 | 9.0 | 0.00 | 0.04 | 0.04 | 86 | 1020.5 |
| 20260906053044 | 56 | 339 | 6.0 | 14.0 | 0.01 | 0.04 | 0.04 | 86 | 1020.5 |
| 20260906051545 | 56 | 5 | 7.0 | 12.0 | 0.01 | 0.04 | 0.04 | 86 | 1020.0 |
| 20260906050053 | 57 | 352 | 6.0 | 13.0 | 0.01 | 0.04 | 0.04 | 85 | 1019.9 |
| 20260906044546 | 57 | 352 | 10.0 | 16.0 | 0.01 | 0.04 | 0.04 | 83 | 1019.8 |
| 20260906043047 | 58 | 352 | 8.0 | 13.0 | 0.00 | 0.03 | 0.03 | 80 | 1020.2 |
| 20260906041547 | 58 | 351 | 10.0 | 17.0 | 0.00 | 0.03 | 0.03 | 80 | 1019.3 |
| 20260906040045 | 58 | 310 | 10.0 | 17.0 | 0.00 | 0.03 | 0.03 | 80 | 1019.1 |
| 20260906034558 | 58 | 309 | 8.0 | 13.0 | 0.00 | 0.03 | 0.03 | 78 | 1019.1 |
| 20260906033045 | 59 | 340 | 9.0 | 15.0 | 0.00 | 0.03 | 0.03 | 75 | 1019.4 |
| 20260906031618 | 60 | 338 | 10.0 | 19.0 | 0.00 | 0.03 | 0.03 | 71 | 1019.5 |
| 20260906030046 | 62 | 323 | 8.0 | 16.0 | 0.00 | 0.03 | 0.03 | 65 | 1020.5 |
| 20260906024546 | 62 | 15 | 18.0 | 24.0 | 0.00 | 0.03 | 0.03 | 65 | 1018.1 |
| 20260906023049 | 62 | 11 | 17.0 | 22.0 | 0.00 | 0.03 | 0.03 | 64 | 1017.8 |
| 20260906021549 | 63 | 20 | 16.0 | 24.0 | 0.00 | 0.03 | 0.03 | 63 | 1017.8 |
| 20260906020056 | 64 | 5 | 12.0 | 21.0 | 0.00 | 0.03 | 0.03 | 59 | 1017.8 |
| 20260906014555 | 65 | 5 | 12.0 | 16.0 | 0.00 | 0.03 | 0.03 | 57 | 1017.8 |
| 20260906013044 | 66 | 10 | 10.0 | 14.0 | 0.00 | 0.03 | 0.03 | 56 | 1017.8 |
| 20260906011543 | 67 | 360 | 11.0 | 17.0 | 0.00 | 0.03 | 0.03 | 53 | 1017.9 |
| 20260906010044 | 68 | 5 | 13.0 | 18.0 | 0.00 | 0.03 | 0.03 | 51 | 1017.8 |
| 20260906004541 | 69 | 18 | 14.0 | 19.0 | 0.00 | 0.03 | 0.03 | 49 | 1018.0 |
| 20260906003046 | 72 | 5 | 11.0 | 15.0 | 0.00 | 0.03 | 0.03 | 43 | 1018.0 |
| 20260906001544 | 72 | 360 | 11.0 | 16.0 | 0.00 | 0.03 | 0.03 | 42 | 1018.0 |
| 20260906000044 | 72 | 360 | 10.0 | 16.0 | 0.00 | 0.03 | 0.03 | 42 | 1017.9 |
| 20260905234546 | 72 | 16 | 13.0 | 18.0 | 0.00 | 0.03 | 0.03 | 41 | 1018.0 |